DateTimeUTC,F1_A11,F1_S11,BsB_S11,BsG_S11,BsR_S11,BbsB_S11,BbsG_S11,BbsR_S11,BaB_A11,BaG_A11,BaR_A11,Tu_S11,T_S11,Uu_S11,U_S11,P_S11,T1_A11
2021-06-10T00:00:00Z,00000200,20000000,,,,,,,-000.04,0000.41,0000.24,19.1,26.1,05.7,03.7,0664.3,31.1
2021-06-10T00:01:00Z,00000200,20000000,,,,,,,-000.03,0000.22,-000.18,19.1,26.1,05.7,03.7,0664.3,31.1
2021-06-10T00:02:00Z,00000200,20000000,,,,,,,0000.04,-000.26,0000.03,19.1,26.1,05.7,03.7,0664.3,31.1
2021-06-10T00:03:00Z,00000200,60000000,,,,,,,0000.37,0000.46,0000.27,19.1,26.1,05.7,03.7,0664.3,31.1
2021-06-10T00:04:00Z,00000200,40000000,0001.25,0000.49,0000.45,0000.15,0000.08,0000.35,0000.32,0000.23,0000.17,19.3,25.9,05.7,03.8,0665.2,31.1
2021-06-10T00:05:00Z,00000200,00000000,0001.06,0000.70,0000.27,-000.25,0000.41,-000.06,0000.46,0000.01,0000.40,19.3,25.8,05.7,03.9,0665.2,31.1
2021-06-10T00:06:00Z,00000200,00000000,0000.93,0000.45,0000.34,-000.15,0000.22,-000.12,0000.02,0000.56,0000.00,19.3,25.8,05.8,03.9,0665.2,31.1
2021-06-10T00:07:00Z,00000200,00000000,0002.15,0000.69,0000.58,0000.42,0000.25,-000.03,0000.43,-000.14,0000.46,19.3,25.8,05.8,03.9,0665.2,31.1
2021-06-10T00:08:00Z,00000200,00000000,0001.16,0000.56,0000.28,0000.17,-000.07,-000.19,0000.26,0000.71,0000.17,19.3,25.8,05.9,04.0,0665.2,31.1
2021-06-10T00:09:00Z,00000200,00000000,0000.95,0000.60,0000.33,0000.06,0000.18,0000.15,0000.38,0000.20,0000.24,19.3,25.8,05.8,03.9,0665.2,31.2
2021-06-10T00:10:00Z,00000200,00000000,0000.76,0000.56,0000.55,0000.57,0000.28,0000.21,0000.18,0000.17,-000.13,19.3,25.7,06.0,04.0,0665.2,31.1
2021-06-10T00:11:00Z,00000200,00000000,0000.99,0000.70,0000.19,0000.07,0000.16,0000.00,0000.50,0000.50,0000.64,19.3,25.7,06.0,04.0,0665.2,31.1
2021-06-10T00:12:00Z,00000200,00000000,0000.62,0000.78,0000.31,0000.41,0000.29,-000.15,0000.15,0000.13,0000.06,19.2,25.7,06.0,04.0,0665.2,31.1
2021-06-10T00:13:00Z,00000200,00000000,0000.88,0000.73,0000.37,-000.26,0000.37,-000.18,0000.55,0000.64,0000.11,19.2,25.7,05.9,04.0,0665.2,31.1
2021-06-10T00:14:00Z,00000200,00000000,0000.65,0000.65,0000.64,0000.44,0000.38,0000.22,0000.03,-000.06,0000.29,19.2,25.7,05.9,04.0,0665.2,31.1
2021-06-10T00:15:00Z,00000200,00000000,0001.25,0000.67,0000.58,-000.02,0000.16,0000.01,0000.57,0000.35,0000.25,19.2,25.7,05.9,04.0,0665.2,31.1
2021-06-10T00:16:00Z,00000200,00000000,0001.15,0000.84,0000.39,0000.19,0000.18,-000.22,0000.29,0000.27,0000.57,19.2,25.7,06.0,04.0,0665.2,31.1
2021-06-10T00:17:00Z,00000200,00000000,0001.04,0000.82,0000.53,0000.31,0000.25,0000.10,0000.38,0000.40,0000.02,19.2,25.7,06.0,04.0,0665.2,31.1
2021-06-10T00:18:00Z,00000200,00000000,0000.61,0000.50,0000.32,-000.34,0000.40,0000.42,0000.36,0000.73,0000.23,19.2,25.7,06.0,04.1,0665.2,31.1
2021-06-10T00:19:00Z,00000200,00000000,0001.18,0000.52,0000.54,0000.06,0000.09,0000.03,0000.06,-000.38,0000.26,19.2,25.7,06.1,04.1,0665.2,31.1
2021-06-10T00:20:00Z,00000200,00000000,0001.15,0000.67,0000.49,0000.36,0000.26,0000.17,0000.30,0000.19,0000.06,19.2,25.7,06.1,04.1,0665.2,31.1
2021-06-10T00:21:00Z,00000200,00000000,0001.27,0000.73,0000.84,0000.77,0000.23,0000.27,0000.38,0000.59,0000.23,19.2,25.7,06.1,04.1,0665.2,31.1
2021-06-10T00:22:00Z,00000200,00000000,0001.93,0000.50,0000.40,-000.33,0000.32,-000.03,0000.38,0000.30,0000.03,19.2,25.7,06.2,04.2,0665.2,31.1
2021-06-10T00:23:00Z,00000200,00000000,0001.33,0000.65,0000.29,0000.06,0000.28,0000.04,0000.44,0000.32,0000.51,19.2,25.7,06.1,04.1,0665.2,31.1
2021-06-10T00:24:00Z,00000200,00000000,0001.65,0000.44,0000.39,-000.01,0000.23,0000.02,-000.17,-000.10,-000.15,19.2,25.7,06.1,04.1,0665.2,31.1
2021-06-10T00:25:00Z,00000200,00000000,0001.51,0000.54,0000.49,0000.09,0000.31,0000.29,0000.54,0000.20,0000.21,19.2,25.6,06.2,04.1,0665.2,31.1
2021-06-10T00:26:00Z,00000200,00000000,0001.37,0000.41,0000.57,0000.10,0000.25,0000.22,0000.49,0000.23,0000.13,19.2,25.6,06.1,04.1,0665.2,31.1
2021-06-10T00:27:00Z,00000200,00000000,0001.10,0000.70,0000.29,0000.44,0000.14,0000.10,0000.13,0000.47,0000.28,19.2,25.6,06.2,04.1,0665.2,31.1
2021-06-10T00:28:00Z,00000200,00000000,0000.50,0000.60,0000.32,0000.17,0000.31,-000.20,0000.64,0000.48,0000.25,19.2,25.6,06.2,04.2,0665.2,31.1
2021-06-10T00:29:00Z,00000200,00000000,0001.00,0000.47,0000.24,-000.15,0000.28,-000.02,-000.06,-000.04,0000.47,19.2,25.6,06.1,04.1,0665.2,31.1
2021-06-10T00:30:00Z,00000200,00000000,0001.32,0000.80,0000.54,-000.28,0000.31,0000.11,-000.04,0000.26,-000.16,19.1,25.6,06.1,04.1,0665.2,31.1
2021-06-10T00:31:00Z,00000200,00000000,0001.22,0000.75,0000.43,0000.50,0000.22,-000.24,0000.61,0000.31,0000.47,19.1,25.6,06.1,04.1,0665.2,31.1
2021-06-10T00:32:00Z,00000200,00000000,0001.95,0000.61,0000.18,0000.24,0000.08,0000.05,0000.03,0000.43,-000.01,19.1,25.6,06.2,04.2,0665.2,31.1
2021-06-10T00:33:00Z,00000200,00000000,0000.87,0000.48,-000.02,0000.08,0000.34,-000.20,0000.82,0000.38,0000.02,19.1,25.6,06.2,04.2,0665.2,31.1
2021-06-10T00:34:00Z,00000200,00000000,0001.74,0000.71,0000.26,-000.04,0000.23,0000.03,0000.06,0000.35,0000.69,19.1,25.6,06.3,04.2,0665.1,31.1
2021-06-10T00:35:00Z,00000200,00000000,0001.38,0001.14,0000.17,0000.10,0000.04,-000.11,0000.38,0000.03,0000.06,19.1,25.6,06.2,04.2,0665.1,31.1
2021-06-10T00:36:00Z,00000200,00000000,0001.27,0000.63,0000.29,0000.18,0000.54,0000.17,0000.26,0000.41,0000.34,19.1,25.6,06.3,04.2,0665.1,31.1
2021-06-10T00:37:00Z,00000200,00000000,0001.01,0000.69,0000.21,0000.01,0000.22,0000.06,0000.53,0000.12,0000.11,19.1,25.6,06.2,04.2,0665.1,31.1
2021-06-10T00:38:00Z,00000200,00000000,0001.62,0000.23,0000.66,0000.04,0000.32,-000.12,0000.18,0000.19,0000.09,19.1,25.5,06.3,04.3,0665.1,31.1
2021-06-10T00:39:00Z,00000200,00000000,0001.15,0000.49,0000.49,0000.16,0000.49,0000.19,0000.43,0000.81,0000.08,19.1,25.5,06.4,04.3,0665.1,31.1
2021-06-10T00:40:00Z,00000200,00000000,0000.98,0000.47,0000.34,0000.07,0000.22,-000.07,0000.22,0000.06,0000.69,19.1,25.5,06.5,04.4,0665.1,31.1
2021-06-10T00:41:00Z,00000200,00000000,0001.28,0000.21,0000.45,0000.23,0000.27,-000.05,0000.53,0000.09,0000.01,19.1,25.5,06.5,04.4,0665.1,31.1
2021-06-10T00:42:00Z,00000200,00000000,0001.23,0000.53,0000.42,0000.29,0000.07,-000.07,0000.06,0000.92,0000.23,19.1,25.5,06.4,04.3,0665.1,31.1
2021-06-10T00:43:00Z,00000200,00000000,0001.48,0000.40,0000.32,0000.27,0000.31,0000.25,0000.13,0000.00,0000.37,19.1,25.5,06.5,04.4,0665.1,31.1
2021-06-10T00:44:00Z,00000200,00000000,0001.25,0000.66,0000.33,0000.34,0000.13,-000.00,0000.88,-000.18,0000.15,19.1,25.5,06.5,04.4,0665.1,31.1
2021-06-10T00:45:00Z,00000200,00000000,0001.27,0000.71,0000.46,-000.02,0000.24,0000.27,-000.18,0000.71,0000.36,19.1,25.5,06.4,04.3,0665.1,31.1
2021-06-10T00:46:00Z,00000200,00000000,0000.96,0000.46,0000.43,0000.25,0000.19,0000.16,0000.18,0000.10,0000.11,19.0,25.5,06.4,04.3,0665.1,31.1
2021-06-10T00:47:00Z,00000200,00000000,0000.50,0000.68,0000.28,0000.09,0000.14,-000.22,0000.64,0000.27,0000.36,19.1,25.5,06.4,04.3,0665.1,31.1
2021-06-10T00:48:00Z,00000200,00000000,0001.42,0000.68,0000.81,0000.38,0000.41,0000.05,0000.28,0000.53,0000.19,19.1,25.5,06.5,04.4,0665.1,31.1
2021-06-10T00:49:00Z,00000200,00000000,0001.17,0000.70,0000.45,0000.34,0000.35,-000.07,0000.15,0000.26,-000.11,19.0,25.5,06.5,04.4,0665.1,31.1
2021-06-10T00:50:00Z,00000200,00000000,0001.67,0000.82,0000.16,0000.43,0000.35,-000.19,0000.28,-000.06,0000.33,19.0,25.5,06.5,04.4,0665.1,31.1
2021-06-10T00:51:00Z,00000200,00000000,0000.39,0000.05,0000.63,0000.18,0000.10,-000.19,0000.35,0000.48,0000.18,19.0,25.5,06.4,04.4,0665.1,31.1
2021-06-10T00:52:00Z,00000200,00000000,0000.71,0000.55,0000.51,-000.28,0000.20,-000.01,0000.18,-000.02,-000.07,19.0,25.4,06.4,04.3,0665.1,31.1
2021-06-10T00:53:00Z,00000200,00000000,0001.46,0000.58,0000.40,0000.20,0000.32,0000.27,0000.10,0000.14,0000.17,19.0,25.4,06.3,04.3,0665.1,31.1
2021-06-10T00:54:00Z,00000200,00000000,0001.72,0000.53,0000.52,-000.15,0000.25,0000.07,0000.37,0000.60,0000.42,19.0,25.4,06.4,04.3,0665.1,31.1
2021-06-10T00:55:00Z,00000200,00000000,0001.88,0000.84,0000.39,0000.04,0000.05,0000.02,0000.47,0000.29,0000.29,19.0,25.4,06.4,04.3,0665.1,31.1
2021-06-10T00:56:00Z,00000200,00000000,0000.85,0000.49,0000.51,-000.02,0000.48,0000.19,0000.24,0000.22,0000.13,19.0,25.4,06.5,04.4,0665.0,31.1
2021-06-10T00:57:00Z,00000200,40000000,,,,,,,-000.10,-000.10,-000.00,19.0,25.5,06.8,04.6,0664.9,31.1
2021-06-10T00:58:00Z,00000200,60000000,,,,,,,-000.01,0000.04,-000.10,18.8,25.6,06.6,04.3,0664.1,31.1
2021-06-10T00:59:00Z,00000200,20000000,,,,,,,-000.47,-000.27,-000.21,18.7,25.7,06.3,04.1,0664.0,31.1
